Location: Bottens
(46.6171°N, 6.6605°E)
Time: 14:31:19
(UTC+00:00)

USA 290 - Pass Details

Date: 20 June 2021
Orbit: 401 x 412 km, 73.6° (Epoch: 10 July)

Event Time Altitude Azimuth Distance (km) Brightness Sun altitude
Exits shadow 01:11:03 33° 151° (SSE) 704 3.0 -16.7°
Maximum altitude 01:11:56 43° 108° (ESE) 587 3.0 -16.6°
Drops below altitude 10° 01:15:01 10° 35° (NE) 1,471 6.3 -16.4°
Sets 01:17:07 0° 29° (NNE) 2,334 7.9 -16.2°
